Location: Newark
(40.9833°N, 0.0333°W)
Time: 23:58:11
(UTC+00:00)

Altair - Pass Details

Date: 02 November 2020
Orbit: 1502 x 1682 km, 47.2° (Epoch: 03 December)

Event Time Altitude Azimuth Distance (km) Brightness Sun altitude
Rises 07:55:38 0° 290° (WNW) 4,692 9.4 13.2°
Reaches altitude 10° 07:58:41 10° 293° (WNW) 3,728 9.0 13.7°
Maximum altitude 08:08:09 69° 16° (NNE) 1,682 7.9 15.1°
Drops below altitude 10° 08:17:58 10° 100° (E) 3,866 10.9 16.6°
Sets 08:21:11 0° 103° (ESE) 4,873 11.3 17.1°
